Showing default

JASON 3, 41240

Orbit data source: Space-Track

JASON 3, 41240 is an American payload satellite in LEO that was launched on Sun, 17 Jan 2016 UTC via an FALCON 9 launch vehicle from the Air Force Western Test Range (AFWTR). Payloads include a variety of satellites, spacecraft, and rockets equipped with specific instruments for various scientific and technological missions. These include communications satellites like Starlink; space stations such as the ISS; scientific satellites like the Hubble; Earth observation satellites from companies like Planet Labs, Umbra, and HawkEye 360; GPS; miniature CubeSats for education and research; and military/defense satellites.

Loading next visibility...
JASON 3 details
Identifier
41240, 2016-002A
Orbit
LEO
Last TLE update5 hours ago
Origin
Flag of USCNES/NOAA (US)
ManufacturerThales Alenia
MissionOperational Civil Sci/Met
Bus & MotorPROTEUS, AOCS
Mass553 kg wet, 525 kg dry
Launch date (UTC)
2016-01-17 (9 years ago)
Launch vehicle
FALCON 9
Launch site
Air Force Western Test Range (AFWTR)
Object type
Payload
Rocket body
Debris
Shape & HBRBox + 2 Pan, 9.7 m
Radar Cross Section12.823 m², Large (>1 m²)

Expand to show TLE details & history

TLE from 5 hours ago
0 JASON 3
1 41240U 16002A   24361.48995896 -.00000007  00000-0  23337-3 0  9993
2 41240  66.0393 171.9335 0007343 269.3951  90.6223 12.80930941418272
Epoch: 2024-12-26T11:45Z
Definitive object data (Epoch: 2024-12-26T11:45:32.454Z)
Latitude0.00001°
Longitude-99.92033°
Altitude1,339.705 km
Speed7.188 km/s
True Right ascension11h 27m 44s
True Declination0° 00' 00"
Sunlit
Object was in daylight at TLE epoch
Visualization TLE readout
Latitude-60.44423°
Longitude-151.61743°
Altitude1,354.778 km
Speed7.183 km/s
Apparent Right ascension05h 57m 12s
Apparent Declination-54° 12' 58"
Sunlit
Object is in daylight
Visualization observer readout
Local Sidereal Time16:22:37
Azimuth220.102° SW
Elevation-68.647°
Doppler factor1
Orbital elements
Apogee altitude1,341.957 km
Perigee altitude1,330.628 km
Semi-major axis7,714.429 km
Eccentricity0.0007343
Inclination66.0393°
RAAN171.9335°
Arg. of periapsis269.3951°
True anomaly90.70644°
Mean anomaly90.6223°
Eccentric anomaly90.66437°
Mean motion3.20323 °/min
BSTAR0.00023337
Orbital period112.39 mins
Loading maneuver chart data...
Loading historical data...
Loading historical data...
Loading historical data...
Loading historical data...
Loading historical data...
Loading historical data...
Loading historical data...
Other satellites on launch #2 in the year 2016 (2016-01-17 UTC)

JASON 3 Visibility forecast

Observer location: undefined°, undefined

Span
Click to sort rows by Start time (UTC) header in descending order
Start Az.
Max El. time (UTC)
Max El. Az.
Max El.
End time (UTC)
End Az.
8 mins2024-12-26 19:46:21.588Z356.431° N2024-12-26 19:50:21.588Z27.584° NE15.509°2024-12-26 19:54:21.588Z59.03° ENE
14 mins2024-12-26 21:42:21.588Z341.883° N2024-12-26 21:48:21.588Z49.657° ENE38.715°2024-12-26 21:56:21.588Z129.063° SE
12 mins2024-12-26 23:38:21.588Z308.255° NW2024-12-26 23:44:21.588Z248.472° W30.158°2024-12-26 23:50:21.588Z193.695° SSW
13 mins2024-12-27 12:13:21.588Z170.973° S2024-12-27 12:19:21.588Z112.01° ESE33.151°2024-12-27 12:26:21.588Z45.299° ENE
13 mins2024-12-27 14:09:21.588Z241.774° WSW2024-12-27 14:15:21.588Z309.71° NW36.46°2024-12-27 14:22:21.588Z19.505° NNE
7 mins2024-12-27 16:10:21.588Z308.974° NW2024-12-27 16:13:21.588Z332.237° NNW14.335°2024-12-27 16:17:21.588Z2.993° NNE
|